{"data":{"norad_id":39202,"epoch":"2026-09-20T04:51:10.935360Z","epoch_age_seconds":59308,"freshness":"FRESH","line1":"1 39202U 13035A   26263.20220990  .00000206  00000+0  47734-4 0  9997","line2":"2 39202  98.2877  88.7027 0008903 302.5068  57.5274 14.64973062703142","mean_motion":14.64973062,"eccentricity":0.0008903,"inclination_deg":98.2877,"raan_deg":88.7027,"arg_perigee_deg":302.5068,"mean_anomaly_deg":57.5274,"bstar":4.7734e-5,"rev_number":70314,"period_min":98.295322784577,"perigee_km":670.88053268186,"apogee_km":683.44319784134,"semimajor_km":7055.2988652616,"source":"CELESTRAK","updated_at":"2026-09-20T09:00:13.915184Z"}}